Teesside, United Kingdom

9:07 AM BST on July 28, 2017 (GMT +0100)
Teesside

Weather History for EGNV - October, 2012

Change the Weather History Date:

Friday, October 26, 2012

  Actual Average Record
Temperature  
Mean Temperature 38 °F -  
Max Temperature 42 °F 49 °F 60 °F (2006)
Min Temperature 33 °F 38 °F 33 °F (2012)
Degree Days  
Heating Degree Days 26    
Moisture  
Dew Point 32 °F    
Average Humidity 76    
Maximum Humidity 87    
Minimum Humidity 61    
Precipitation  
Precipitation 0.00 in - - ()
Sea Level Pressure  
Sea Level Pressure 30.05 in    
Wind  
Wind Speed 11 mph ()    
Max Wind Speed 20 mph    
Max Gust Speed -    
Visibility 5.9 miles    
Events Rain , Snow    
Averages and records for this station are not official NWS values.
T = Trace of Precipitation, MM = Missing Value Source: Averaged Metar Reports

Daily Weather History Graph

Daily Weather History Graph

Search for Another Location

Airport or City:

Trip Planner

Search our weather history database for the weather conditions in past years. The results will help you decide how hot, cold, wet, or windy it might be!

Date:

Astronomy

Oct. 26, 2012 Rise Set
Actual Time 7:56 AM BST 5:41 PM BST
Civil Twilight 7:19 AM BST 6:19 PM BST
Nautical Twilight 6:37 AM BST 7:00 PM BST
Astronomical Twilight 5:55 AM BST 7:42 PM BST
Moon 4:11 PM BST (10/26) 4:12 AM BST (10/26)
Length of Visible Light 10h 59m
Length of Day
9h 45m
Waxing Gibbous, 89% of the Moon is Illuminated
Oct 26
Waxing Gibbous
Oct 29
Full
Nov 7
Last Quarter
Nov 13
New
Nov 20
First Quarter

Hourly Weather History & Observations

Time (BST) Temp. Windchill Dew Point Humidity Pressure Visibility Wind Dir Wind Speed Gust Speed Precip Events Conditions
5:50 AM 42.8 °F 38.6 °F 32.0 °F 66% 30.12 in 6.2 mi NNE 6.9 mph - N/A   Scattered Clouds
6:20 AM 42.8 °F 38.0 °F 32.0 °F 66% 30.12 in 6.2 mi North 8.1 mph - N/A   Scattered Clouds
6:50 AM 41.0 °F 34.7 °F 33.8 °F 76% 30.09 in 6.2 mi North 10.4 mph - N/A   Scattered Clouds
7:20 AM 41.0 °F 34.7 °F 33.8 °F 76% 30.09 in 6.2 mi NNE 10.4 mph - N/A   Partly Cloudy
7:50 AM 41.0 °F 37.1 °F 32.0 °F 70% 30.09 in 6.2 mi North 5.8 mph - N/A   Partly Cloudy
8:20 AM 41.0 °F 35.2 °F 33.8 °F 76% 30.09 in 6.2 mi NNW 9.2 mph - N/A   Partly Cloudy
8:50 AM 41.0 °F 33.9 °F 33.8 °F 76% 30.09 in 6.2 mi NNW 12.7 mph - N/A   Mostly Cloudy
9:20 AM 41.0 °F 35.8 °F 33.8 °F 76% 30.09 in 5.6 mi North 8.1 mph - N/A   Mostly Cloudy
9:50 AM 41.0 °F 35.2 °F 33.8 °F 76% 30.09 in 6.2 mi North 9.2 mph - N/A   Mostly Cloudy
10:20 AM 39.2 °F 34.2 °F 35.6 °F 87% 30.09 in 6.2 mi NNE 6.9 mph - N/A   Scattered Clouds
10:50 AM 41.0 °F 35.2 °F 35.6 °F 81% 30.09 in 6.2 mi NW 9.2 mph - N/A   Scattered Clouds
11:20 AM 41.0 °F 32.8 °F 35.6 °F 81% 30.09 in 6.2 mi North 16.1 mph - N/A   Scattered Clouds
11:50 AM 41.0 °F 32.5 °F 35.6 °F 81% 30.09 in 5.0 mi North 17.3 mph - N/A   Scattered Clouds
12:20 PM 39.2 °F 31.6 °F 35.6 °F 87% 30.09 in 6.2 mi NNE 12.7 mph - N/A   Scattered Clouds
12:50 PM 39.2 °F 30.8 °F 35.6 °F 87% 30.06 in 6.2 mi NNW 15.0 mph - N/A Rain Light Rain Showers
1:20 PM 39.2 °F 29.6 °F 33.8 °F 81% 30.06 in 6.2 mi NNW 19.6 mph - N/A   Scattered Clouds
1:50 PM 39.2 °F 31.6 °F 33.8 °F 81% 30.06 in 6.2 mi NNW 12.7 mph - N/A   Scattered Clouds
2:20 PM 41.0 °F 33.1 °F 33.8 °F 76% 30.04 in 6.2 mi North 15.0 mph - N/A   Mostly Cloudy
2:50 PM 41.0 °F 33.1 °F 33.8 °F 76% 30.04 in 6.2 mi North 15.0 mph - N/A   Scattered Clouds
3:20 PM 42.8 °F 35.1 °F 30.2 °F 61% 30.04 in 6.2 mi NNW 16.1 mph - N/A   Scattered Clouds
3:50 PM 41.0 °F 31.9 °F 30.2 °F 65% 30.01 in 6.2 mi North 19.6 mph - N/A   Partly Cloudy
4:20 PM 41.0 °F 32.5 °F 30.2 °F 65% 30.01 in 6.2 mi North 17.3 mph - N/A   Partly Cloudy
4:50 PM 41.0 °F 32.8 °F 30.2 °F 65% 30.01 in 6.2 mi North 16.1 mph - N/A   Partly Cloudy
5:20 PM 39.2 °F 31.2 °F 30.2 °F 70% 30.01 in 6.2 mi North 13.8 mph - N/A   Partly Cloudy
5:50 PM 39.2 °F 31.6 °F 30.2 °F 70% 30.01 in 6.2 mi NW 12.7 mph - N/A   Partly Cloudy
6:20 PM 37.4 °F 29.3 °F 30.2 °F 75% 30.01 in 6.2 mi NNW 12.7 mph - N/A   Partly Cloudy
6:50 PM 37.4 °F 29.3 °F 28.4 °F 70% 30.01 in 6.2 mi NW 12.7 mph - N/A   Partly Cloudy
7:20 PM 37.4 °F 30.3 °F 28.4 °F 70% 30.01 in 5.0 mi NW 10.4 mph - N/A Rain , Snow Rain Showers
7:50 PM 35.6 °F 28.6 °F 30.2 °F 81% 30.01 in 5.0 mi NNW 9.2 mph - N/A Snow Light Snow Showers
8:20 PM 35.6 °F 27.5 °F 30.2 °F 81% 30.01 in 6.2 mi NW 11.5 mph - N/A   Partly Cloudy
8:50 PM 35.6 °F 26.2 °F 30.2 °F 81% 30.01 in 5.6 mi NW 15.0 mph - N/A   Partly Cloudy
9:20 PM 35.6 °F 25.9 °F 28.4 °F 75% 30.01 in 5.6 mi NW 16.1 mph - N/A   Partly Cloudy
9:50 PM 35.6 °F 24.8 °F 28.4 °F 75% 30.01 in 5.6 mi NNW 19.6 mph - N/A   Partly Cloudy
10:20 PM 35.6 °F 24.8 °F 30.2 °F 81% 30.01 in 4.3 mi NNW 19.6 mph - N/A Snow Light Snow Showers
10:50 PM 33.8 °F 22.8 °F 30.2 °F 87% 30.01 in 4.3 mi NNW 18.4 mph - N/A Snow Light Snow Showers